Temp
21 21 25 28 31 31 34 31 33 32 33 34 36 34 34 35 35 33 31 31 31 31 31 31 32 32 31 30 29 29 29 28 27 28 28 29 29 29 29 28 27 27 27 26
23 23 25 30 30 28 33 31 30 31 37 36 36 36 35 35 35 34 33 33 32 33 31 31 32 32 32 31 29 28 28 27 27 28 29 29 29 28 29 28 27 27 27 27
21 23 27 30 28 28 32 30 28 33 36 37 36 35 35 35 36 36 35 34 33 33 33 33 33 33 32 30 29 29 29 28 28 28 29 28 28 28 28 29 27 27 27 27
26 28 30 24 28 34 32 37 36 36 35 32 34 30 32 35 35 35 35 36 35 34 34 34 34 34 33 31 30 30 29 29 29 28 28 29 28 28 29 29 28 27 27 27
28 28 32 34 37 38 38 39 36 31 26 25 32 26 33 36 34 35 35 36 36 35 35 35 35 34 34 33 32 31 30 29 29 28 28 28 28 28 29 28 28 28 28 27
35 33 36 37 38 39 39 36 31 33 31 27 31 27 31 36 35 35 36 36 37 36 36 36 36 34 34 34 33 32 31 30 29 28 28 27 28 28 28 29 29 28 28 27
34 36 38 39 38 39 31 28 24 27 29 30 31 30 34 38 38 37 36 37 37 37 37 37 37 36 35 35 34 33 30 29 28 28 27 27 27 28 28 28 29 29 29 28
32 34 37 36 37 37 34 25 26 24 25 30 31 34 37 40 40 39 38 37 37 37 37 37 37 36 36 35 34 34 30 29 28 28 27 27 27 27 28 28 29 29 29 29
37 33 36 36 38 39 37 36 27 26 25 24 23 36 39 40 39 39 39 38 37 37 38 37 37 36 35 35 34 34 31 30 29 29 28 27 27 27 28 29 29 29 29 29
39 31 33 37 40 40 38 39 28 30 29 29 32 27 36 38 38 39 39 38 38 37 38 37 38 37 36 36 35 34 32 32 31 31 28 27 27 27 28 28 29 29 29 29
40 39 36 38 39 39 38 33 35 36 30 24 25 33 34 32 38 38 39 39 39 38 38 38 38 37 37 36 36 35 34 33 32 32 29 29 28 27 27 27 28 28 28 28
40 39 38 39 42 42 37 31 30 31 32 27 26 28 33 32 36 39 38 38 39 39 38 39 37 35 37 37 36 33 31 29 33 33 30 29 28 28 28 28 28 28 27 27
39 38 37 38 40 42 40 36 34 34 36 36 32 31 32 31 36 38 37 37 36 37 38 35 27 23 26 35 34 33 30 30 31 33 31 31 29 29 29 29 29 29 28 27
38 38 38 37 39 40 39 40 40 40 37 38 38 35 30 25 25 37 36 35 35 36 35 31 28 25 29 34 34 33 33 32 32 32 32 31 30 30 30 31 30 30 28 27
39 37 38 39 40 40 40 37 36 37 36 38 37 38 31 25 30 37 36 35 34 34 34 34 32 30 30 31 32 31 31 31 31 31 31 31 31 30 30 29 28 28 25 26
39 37 38 37 39 39 39 38 35 32 33 40 39 38 40 35 34 38 36 35 34 33 33 33 33 32 32 32 31 31 31 31 30 30 30 29 30 28 28 26 25 25 24 24
38 36 38 36 39 39 37 40 40 35 40 40 39 40 41 39 39 38 36 36 35 35 34 33 32 32 33 33 32 31 31 30 29 29 29 28 27 26 26 24 24 24 23 24
37 37 37 36 37 35 39 40 39 40 41 41 41 40 40 41 40 39 38 36 35 35 35 34 35 34 33 33 32 29 29 29 28 28 27 27 26 25 24 24 24 24 24 24
38 38 37 36 36 38 38 38 37 36 38 40 41 41 42 41 41 39 39 37 36 36 36 35 35 34 32 32 30 30 29 28 27 26 26 25 26 25 24 24 24 24 24 23
39 39 38 37 35 35 37 39 37 38 37 39 36 41 41 40 38 38 38 38 37 37 36 36 34 33 32 30 30 28 27 25 25 25 25 25 24 25 24 24 24 24 24 23
34 35 37 37 36 38 40 36 38 32 33 34 31 34 41 40 39 39 38 37 37 37 36 35 33 32 31 30 30 28 27 25 25 25 24 24 24 24 24 24 24 24 24 23
34 27 31 35 36 35 40 38 36 37 33 35 34 36 40 40 40 38 38 37 37 36 34 34 33 32 31 31 30 28 26 25 24 24 24 24 25 25 24 24 24 23 23 23
34 36 35 35 36 38 39 39 41 41 40 30 30 34 38 39 38 38 37 36 36 35 34 34 32 31 31 29 29 26 25 25 25 25 25 25 25 24 24 24 24 24 24 24
33 36 33 33 33 31 34 38 39 39 34 33 32 34 39 39 39 38 37 37 35 34 34 33 32 31 29 28 26 26 25 25 25 25 25 25 25 24 24 24 25 26 26 26
28 28 30 32 33 29 31 33 40 38 30 31 26 29 39 27 35 37 37 36 34 33 33 32 31 29 28 27 26 25 25 25 25 25 25 25 26 25 25 26 27 27 27 27
27 27 28 28 25 25 27 26 28 39 37 33 35 39 39 36 37 37 36 35 34 33 32 30 29 28 27 27 26 25 25 25 25 26 26 27 27 26 27 27 27 27 27 27
Height
800 817 806 765 756 762 749 763 753 753 736 739 734 743 742 739 738 750 761 762 764 765 767 773 775 781 786 791 797 802 803 803 805 806 806 806 807 807 809 811 812 813 815 816
798 820 790 775 774 782 751 767 778 754 722 730 733 737 735 737 737 740 751 755 760 759 765 770 775 777 782 790 797 801 800 803 805 804 804 805 806 807 808 810 812 812 814 815
828 806 787 774 782 780 752 763 775 750 730 723 729 744 740 735 732 733 737 744 752 757 759 763 768 773 779 785 791 794 797 800 802 802 804 805 806 808 809 810 811 812 814 815
796 776 780 781 766 744 759 719 728 734 741 772 740 789 757 738 741 738 738 739 743 750 753 759 764 767 773 779 785 789 793 797 799 801 802 804 806 807 808 808 810 811 812 813
771 769 762 751 724 715 728 709 726 751 781 793 766 803 757 734 747 743 737 736 736 743 748 754 757 762 767 774 780 785 790 793 796 798 801 802 804 805 805 807 808 810 810 811
737 728 731 725 714 705 704 726 747 744 765 807 770 793 770 740 735 734 731 731 732 736 740 744 750 758 764 769 775 779 785 789 793 796 799 801 803 803 805 805 806 807 807 807
743 731 712 705 718 710 743 777 828 818 800 800 759 771 744 713 705 715 724 726 728 729 734 740 744 750 756 763 769 774 782 787 791 795 797 799 802 803 804 805 804 804 803 804
770 763 728 721 725 731 744 805 827 854 838 804 762 758 729 697 692 698 707 717 722 726 729 734 741 747 753 759 765 771 777 783 788 792 794 797 799 800 800 801 802 802 802 802
744 759 723 719 709 712 740 750 772 817 815 840 823 738 707 699 706 700 704 713 720 723 724 731 737 743 749 756 762 768 773 779 784 787 790 793 794 796 797 799 800 801 802 803
721 774 735 713 700 702 721 715 791 780 814 819 784 798 749 724 720 708 706 711 715 718 719 723 730 737 744 751 757 764 769 775 779 782 785 789 791 793 794 797 798 799 801 802
711 721 731 714 716 720 724 752 746 744 784 840 843 780 735 738 712 711 707 703 706 711 716 718 725 731 738 744 749 754 761 766 772 777 780 784 787 790 793 796 796 798 801 802
703 717 734 718 686 684 709 746 758 784 782 802 819 797 728 729 714 701 706 705 702 702 707 713 721 732 736 741 744 749 758 763 765 772 778 780 784 787 791 793 795 797 798 800
709 724 743 730 705 686 704 723 725 734 737 749 780 777 734 733 715 705 711 711 711 708 704 713 727 743 750 741 744 759 757 764 762 770 777 779 781 783 786 789 791 792 795 798
710 723 730 743 721 703 714 701 700 708 734 726 726 743 747 757 763 715 716 714 714 712 714 724 734 742 747 741 746 750 757 763 767 771 772 774 776 780 784 785 787 788 793 796
711 734 721 710 701 698 703 715 716 722 723 726 724 723 738 746 733 709 713 715 719 720 722 726 735 741 741 741 747 751 756 761 766 768 770 772 775 778 781 783 786 788 792 794
701 730 720 727 708 702 711 707 715 741 729 701 707 713 686 701 709 703 710 716 721 725 726 729 733 739 743 745 749 754 757 761 764 766 770 770 774 777 781 786 788 790 792 796
713 726 720 735 707 708 726 699 694 707 685 690 711 689 677 690 693 699 706 713 718 721 724 730 735 738 741 745 750 753 757 761 765 767 770 772 775 780 785 788 791 793 795 796
716 714 715 732 716 753 698 676 682 683 676 674 678 680 676 677 677 683 693 707 715 717 721 725 730 735 739 744 749 753 758 762 766 769 770 773 777 780 785 789 792 795 796 797
697 707 720 729 728 707 697 691 697 709 696 676 674 672 668 667 671 684 685 697 709 714 719 723 727 734 740 745 751 756 759 764 769 770 773 775 778 782 786 790 793 796 797 799
688 687 707 713 730 740 699 676 680 679 710 675 682 665 669 671 698 690 682 692 705 712 717 721 727 736 744 748 754 759 763 767 770 773 776 779 781 784 788 792 794 797 800 803
712 706 706 705 714 698 671 678 664 737 720 685 690 679 660 672 668 666 673 687 699 708 715 722 731 739 745 750 754 759 765 769 772 776 779 781 784 787 791 794 796 799 802 804
712 745 730 707 707 720 656 668 695 680 680 675 688 668 658 654 657 664 671 683 693 705 715 725 733 739 746 749 755 760 765 770 774 777 781 784 787 790 793 795 799 801 802 804
708 692 703 700 691 658 652 656 646 644 654 673 666 657 660 649 650 659 671 683 692 705 716 726 733 740 745 751 757 763 768 771 775 779 783 786 789 791 794 797 799 800 801 802
690 674 694 693 685 681 675 652 646 640 652 661 661 658 648 644 654 671 672 680 695 707 718 725 733 740 747 753 759 765 770 773 777 779 784 787 791 793 794 795 795 797 798 799
723 714 706 698 687 689 684 667 645 646 651 657 682 682 653 663 636 671 681 684 697 709 718 724 733 741 748 755 760 766 771 774 777 781 784 788 791 793 795 796 795 796 796 797
729 723 721 721 717 717 699 689 674 645 645 649 649 645 647 654 654 669 679 685 696 708 717 725 735 742 749 755 760 766 770 774 778 781 783 785 789 791 792 793 794 795 796 797
Wind_Speed
13 8 19 18 16 19 13 13 4 4 17 12 7 12 12 11 14 17 17 21 19 15 8 21 18 14 21 18 15 11 10 8 5 5 11 10 8 11 5 8 6 2 2 3
10 15 28 17 18 19 20 3 13 20 1 7 5 11 14 13 11 19 19 16 15 13 21 19 20 19 19 23 19 15 16 14 12 11 10 3 2 11 3 1 2 2 2 2
20 23 26 16 16 25 4 11 18 8 8 8 8 8 15 14 12 13 15 21 21 17 17 20 20 21 19 23 24 21 18 17 15 12 7 2 4 5 5 6 2 3 4 4
8 12 12 18 27 22 1 10 19 15 5 2 6 3 4 13 14 13 15 13 21 19 16 17 22 23 23 26 24 23 22 19 15 14 11 11 9 10 7 9 4 3 5 5
10 24 21 18 10 6 8 5 19 21 13 10 6 8 5 16 16 15 16 16 18 18 20 19 19 22 22 21 20 22 23 19 15 18 14 11 12 11 8 9 5 7 7 8
11 18 10 13 19 8 6 13 24 10 6 3 18 11 7 16 18 18 17 18 17 20 20 20 26 26 22 25 24 23 24 20 17 15 16 12 13 13 9 7 8 10 12 13
22 13 12 12 20 8 26 22 7 7 5 7 16 2 9 13 19 20 20 18 18 17 16 16 15 22 22 24 21 21 24 19 16 17 15 18 15 10 8 4 8 10 12 18
16 8 17 14 25 5 16 12 6 2 4 8 4 6 11 11 11 20 21 18 18 17 17 17 16 15 13 19 20 19 26 19 17 18 18 17 17 15 14 12 14 13 8 15
8 4 9 22 25 3 5 7 16 3 4 4 9 4 14 13 10 6 21 19 16 16 17 16 17 20 22 20 19 19 26 21 20 19 21 21 21 20 19 16 17 11 10 5
12 2 13 27 12 11 7 1 3 5 4 3 10 12 8 8 10 7 12 19 18 17 16 17 17 22 23 23 23 21 26 22 22 22 23 21 21 22 21 12 12 12 10 10
10 13 13 24 6 12 9 3 13 8 6 4 7 4 7 13 7 7 4 6 17 18 16 15 14 21 23 24 26 28 28 27 26 23 27 23 22 19 18 15 14 15 12 9
8 8 12 15 10 11 13 14 12 0 6 8 7 7 11 16 14 7 7 4 3 8 18 15 16 2 20 21 25 15 18 23 18 22 26 25 21 19 17 17 16 13 12 10
12 8 9 11 11 12 12 23 13 17 10 2 10 5 10 19 9 8 8 6 2 4 8 10 15 16 32 7 15 16 24 30 25 12 15 17 19 18 19 19 16 17 11 6
3 13 17 14 15 12 12 10 7 11 10 5 7 12 5 25 33 10 7 6 5 5 8 17 18 20 29 3 8 8 12 13 8 12 14 15 17 18 16 17 18 12 11 6
9 14 16 20 19 19 19 3 12 14 23 7 8 6 17 27 28 14 11 9 8 8 6 10 12 8 7 10 9 7 5 6 11 11 9 15 15 15 7 9 10 8 12 9
11 15 16 18 19 18 14 8 19 3 37 5 9 7 5 9 14 14 13 12 11 11 11 8 8 8 9 10 9 10 7 5 6 3 7 10 10 12 10 9 14 10 6 5
13 13 16 16 21 14 17 17 13 28 20 8 9 6 12 15 14 15 15 13 12 12 14 14 12 12 15 13 14 15 11 7 4 8 9 11 10 10 10 14 11 9 9 13
21 20 12 15 18 18 17 20 19 20 12 13 12 12 10 9 15 17 17 15 13 12 13 13 14 15 16 14 12 13 9 7 3 5 9 11 12 16 11 13 14 14 13 14
22 20 15 14 15 19 8 10 7 7 11 17 6 9 8 13 9 16 19 18 14 13 13 15 19 15 10 11 11 9 9 7 8 11 13 14 14 16 18 18 15 16 15 13
22 22 15 16 19 19 11 17 12 13 7 17 28 10 9 14 9 12 19 20 17 17 18 15 18 17 14 13 12 14 12 13 14 16 15 17 18 20 17 16 16 14 12 12
12 12 17 16 17 17 15 6 14 6 7 4 6 27 10 14 10 19 22 21 18 19 20 19 19 16 17 16 15 18 14 13 17 17 18 18 18 18 18 16 14 12 14 13
21 6 13 18 16 19 13 13 12 14 10 13 15 13 1 6 9 23 23 22 20 16 21 21 17 18 17 17 16 19 18 17 18 19 17 17 18 17 16 14 13 12 13 12
20 20 11 15 16 12 17 19 16 15 10 6 3 2 16 15 22 24 21 20 18 18 20 21 20 18 18 19 18 19 19 19 19 19 17 15 15 17 15 14 13 13 13 12
20 18 13 9 15 15 25 5 19 1 10 7 4 17 10 14 21 18 19 19 17 19 18 20 22 19 19 22 23 20 19 19 19 19 15 15 16 15 14 15 15 13 14 18
15 19 18 15 4 9 25 20 19 5 13 14 17 42 9 19 15 17 16 18 16 19 19 23 21 21 21 23 24 21 20 19 19 17 16 15 13 13 11 5 12 9 8 6
17 18 14 12 14 10 16 20 35 18 13 25 25 9 8 18 20 19 17 16 19 20 21 23 24 23 22 22 22 22 20 19 18 17 17 17 15 14 14 12 8 7 4 3
Wind_Direction
44 3 288 209 234 294 230 214 317 193 213 216 217 150 154 173 168 146 158 176 167 193 178 164 187 170 152 159 154 179 166 176 193 223 234 221 257 236 203 219 139 94 87 150
76 261 254 289 304 295 307 64 355 269 228 222 241 171 157 174 194 162 169 172 168 195 181 166 196 196 165 161 157 186 180 188 204 229 255 320 312 41 201 309 194 147 166 177
122 245 268 316 273 271 149 178 222 222 191 223 161 221 155 175 179 164 182 177 175 185 193 184 185 189 174 160 172 186 191 198 196 235 225 222 278 314 241 219 107 270 194 200
171 228 262 274 283 278 255 260 189 211 136 256 350 244 290 184 180 179 183 177 170 172 167 169 184 189 187 169 180 189 187 195 207 217 232 190 208 227 260 214 199 184 182 207
197 250 240 265 339 357 3 359 37 91 60 3 238 48 277 191 186 185 192 184 171 167 167 177 182 187 186 173 179 182 183 192 204 201 206 192 220 242 217 154 176 205 209 204
196 214 243 268 290 288 313 48 32 42 127 162 135 159 262 175 187 184 190 183 187 176 181 182 185 175 197 182 190 180 179 191 200 197 208 201 213 241 291 190 212 244 214 215
323 224 241 279 290 29 62 35 18 350 338 122 107 81 235 184 185 175 183 187 187 186 188 182 188 177 185 174 183 168 164 176 192 197 204 206 220 233 255 254 247 254 234 201
250 317 360 323 285 53 74 151 134 93 269 360 160 162 119 94 126 162 170 181 181 189 185 181 184 192 173 171 172 166 164 171 186 194 201 207 210 215 224 229 243 278 321 192
294 334 320 288 271 214 114 227 162 199 84 33 271 349 85 112 94 128 157 166 176 188 189 180 181 190 175 189 172 185 162 176 186 197 201 206 209 209 217 227 225 254 277 272
292 165 273 269 228 235 192 179 73 183 106 291 352 354 63 121 131 137 141 163 174 185 198 176 186 185 180 188 180 189 165 180 190 195 197 204 207 217 220 225 221 231 250 243
293 285 234 237 230 276 168 9 341 354 106 117 323 310 305 337 116 136 147 151 171 178 192 186 184 184 182 184 182 190 184 186 185 197 190 197 205 214 223 229 230 238 254 273
285 303 302 297 291 190 115 156 170 109 222 163 184 280 322 300 281 132 93 97 86 186 180 197 170 112 175 187 193 150 83 340 180 191 193 196 196 206 211 218 228 228 235 251
326 300 272 266 259 242 210 167 190 189 211 314 179 218 253 321 245 110 122 103 109 279 191 117 84 86 305 128 119 155 146 184 229 172 186 192 195 206 218 210 216 217 207 215
291 280 285 292 305 337 310 262 306 279 213 204 75 176 85 21 312 130 123 123 119 106 57 110 127 151 219 125 90 104 141 169 190 203 203 206 201 214 215 224 204 199 183 175
242 267 281 290 298 307 310 68 19 310 308 315 98 354 153 170 231 149 147 137 134 128 155 127 131 144 175 155 144 134 177 208 247 196 236 203 196 208 186 129 126 158 145 143
241 253 267 281 286 280 277 209 116 36 276 190 183 216 356 148 225 142 150 149 149 151 157 159 166 165 179 187 157 173 206 182 259 203 252 145 144 136 129 118 140 154 126 96
273 277 268 270 285 291 284 262 253 192 236 268 272 265 120 152 154 153 154 163 162 171 152 160 169 181 193 182 196 187 178 170 224 189 204 160 148 136 135 127 116 120 123 111
278 279 280 293 280 256 275 331 330 301 263 250 254 149 167 189 156 159 158 164 168 169 156 161 173 177 184 176 172 129 119 143 177 174 157 154 159 147 132 131 135 133 123 109
251 265 269 252 259 277 227 289 234 349 325 325 236 262 270 157 160 149 155 160 168 165 163 173 164 154 135 155 119 132 138 149 162 136 129 135 143 139 136 133 128 120 110 105
242 247 253 258 262 254 283 274 53 354 289 349 342 246 243 166 193 158 154 154 167 165 166 167 138 136 139 132 158 123 126 122 121 128 135 135 133 129 124 120 115 116 120 130
274 300 242 242 254 251 253 74 77 5 270 299 305 296 228 229 199 156 152 153 164 167 163 133 134 149 145 165 162 142 140 136 140 136 131 126 126 126 124 123 127 132 135 125
261 160 277 279 250 256 263 184 170 211 199 205 254 314 238 269 208 148 151 152 160 156 134 143 151 139 160 152 137 136 135 140 135 132 132 133 136 133 131 131 128 132 137 141
258 267 248 245 278 270 244 258 272 279 206 203 111 67 266 223 144 148 148 149 148 136 144 161 147 152 137 133 140 124 131 135 138 135 135 149 135 130 141 149 160 161 169 161
302 280 302 225 263 287 304 310 296 226 143 116 338 247 224 154 136 143 146 150 134 143 159 155 149 140 129 129 130 139 146 147 141 137 150 141 137 153 172 179 183 204 195 196
294 328 313 318 312 289 282 297 254 157 99 72 191 246 182 14 116 152 157 143 146 147 171 141 140 134 133 136 139 150 155 155 148 148 148 155 162 176 187 222 103 92 71 65
285 291 300 311 3 329 288 301 316 277 188 172 222 181 192 159 151 160 153 142 146 155 147 137 139 140 144 146 147 152 161 157 156 163 171 181 166 192 203 175 139 136 127 134